GFSSGP_700_temp_198.txt.gz
Temp
13 13 13 13 13 13 13 12 13 12 12 12 12 12 12 12 12 12 12 12 12 12 12 12 11 11 11 11 10 10 10 10 10 10 10 10 10 9 9 9 9 9 9 8 8 8 8 9 9
13 13 13 13 13 13 12 12 12 12 12 11 12 11 11 11 12 12 12 12 12 12 11 11 11 11 11 11 10 10 10 10 9 9 9 10 10 9 9 9 9 9 8 8 8 8 8 8 9
13 13 13 13 13 12 12 12 12 12 12 12 12 11 11 11 11 11 12 12 12 12 11 11 11 11 11 11 10 10 10 9 9 9 9 9 9 9 9 8 8 9 8 8 8 8 8 8 8
12 12 12 12 12 12 12 12 12 12 12 12 11 11 11 11 11 11 12 12 12 12 12 12 11 11 11 10 10 10 10 10 9 9 9 8 8 8 8 9 8 8 8 8 8 8 8 7 8
12 12 12 12 12 12 12 12 12 12 12 11 11 11 11 11 11 10 11 11 11 11 11 11 11 10 10 10 10 10 10 10 9 9 9 8 8 8 8 8 8 8 8 8 8 7 7 7 7
12 12 12 12 11 11 11 12 12 12 11 11 11 11 11 11 10 10 10 11 11 11 11 11 11 10 10 10 9 9 9 9 9 9 9 8 8 8 8 8 7 7 7 7 7 7 7 7 7
12 12 12 11 11 11 11 11 11 11 11 11 11 11 11 11 11 10 10 11 11 11 11 11 10 10 10 10 9 9 9 9 9 9 9 8 8 8 8 8 8 7 7 7 7 7 7 7 7
11 11 11 11 11 11 11 11 11 11 11 11 10 10 10 10 10 9 9 11 11 11 11 11 10 10 10 10 9 9 9 9 9 9 8 8 8 8 8 7 7 7 7 7 6 6 7 6 6
11 11 11 11 10 11 11 11 11 11 11 11 10 10 9 9 9 10 10 10 10 10 10 10 10 10 9 9 9 9 9 9 9 9 8 8 8 8 7 7 7 7 7 7 6 6 6 6 6
11 11 11 11 10 10 10 10 10 10 10 10 10 10 9 9 9 9 9 8 9 9 9 9 8 8 8 9 9 9 9 9 9 9 8 8 8 8 8 7 7 7 7 6 6 6 6 6 5
10 10 10 10 10 10 10 10 10 10 11 10 10 10 9 9 8 8 8 9 9 9 9 9 8 7 7 7 8 8 8 8 8 8 8 8 8 8 8 7 7 7 7 6 6 6 6 6 6
11 10 10 11 10 10 10 10 10 10 10 10 10 10 9 9 9 8 8 8 8 8 9 8 9 8 7 7 7 7 7 7 7 8 8 8 8 8 8 7 7 7 7 6 7 6 6 6 5
11 11 10 10 10 10 10 10 9 10 10 10 10 10 10 9 8 8 8 9 9 9 8 7 7 8 8 8 7 6 6 7 7 7 7 7 7 7 8 8 7 7 6 6 6 6 6 5 5
10 10 10 10 10 9 9 9 9 10 9 9 10 10 9 9 8 8 9 8 9 8 8 8 8 7 7 7 7 8 7 6 6 6 6 7 7 7 7 7 7 7 6 6 5 5 5 5 5
9 10 10 9 9 9 8 10 9 9 8 8 8 8 8 8 9 8 7 7 8 8 8 7 7 7 7 7 7 7 7 6 6 6 6 6 7 7 7 7 7 7 6 6 6 5 5 5 5
9 9 9 9 9 8 8 9 8 7 7 7 7 7 7 7 7 7 6 7 7 7 7 6 6 6 7 7 7 7 7 6 6 6 6 6 6 6 7 6 6 6 6 5 6 5 5 5 5
8 8 7 8 8 8 7 7 7 7 6 6 6 6 6 6 6 6 6 6 6 6 6 6 6 6 5 6 6 6 6 6 5 6 6 5 5 6 6 5 4 5 6 5 5 6 5 5 5
7 6 6 6 7 7 6 7 6 6 6 6 6 6 6 6 6 6 6 6 5 5 5 5 5 5 5 6 6 6 6 5 5 5 5 6 6 5 5 5 5 5 5 5 5 5 5 4 4
5 5 5 6 6 5 6 6 5 5 5 5 5 5 5 5 5 5 5 5 5 5 5 5 5 5 5 5 5 5 5 5 5 5 5 5 5 5 5 5 5 4 4 5 4 4 4 4 4
5 5 5 5 4 4 4 4 4 4 4 4 5 5 4 4 4 5 5 5 5 5 5 5 4 4 4 4 4 5 5 5 5 5 5 5 5 5 5 4 5 5 4 3 3 4 4 4 4
4 4 4 3 3 3 3 3 3 3 3 3 2 2 3 3 3 3 4 4 4 4 5 4 4 3 3 4 3 3 4 5 5 5 5 5 5 5 5 5 5 5 3 3 2 4 4 5 4
3 2 2 2 2 2 2 1 2 2 2 2 2 1 2 2 2 3 3 3 3 3 3 3 3 3 2 2 3 3 4 4 5 5 5 5 5 5 4 5 4 3 4 2 2 3 4 4 3
2 2 1 1 2 2 1 1 2 2 1 1 1 1 1 2 2 2 2 2 1 1 1 1 1 2 2 2 2 3 3 4 4 5 5 5 4 4 4 4 4 4 3 2 2 2 3 3 3
1 1 2 2 1 -1 1 -2 -0 0 -0 -1 -0 -1 -1 -1 -1 -1 -1 -1 -1 -1 -0 0 1 1 1 1 2 2 3 4 4 4 5 5 4 4 4 4 4 4 3 2 1 2 2 3 3
1 0 -1 -2 -1 -1 0 -1 -1 -1 -1 -1 -2 -2 -2 -2 -2 -3 -3 -2 -3 -2 -2 -1 -1 -0 1 1 1 2 2 3 3 4 4 5 4 4 4 3 4 3 3 2 1 1 2 3 3
-1 -2 -2 -4 -4 -3 -3 -2 -1 -2 -2 -2 -2 -2 -2 -3 -3 -4 -4 -3 -3 -3 -3 -2 -3 -1 0 1 1 2 2 2 3 3 4 4 3 3 3 3 2 1 2 0 0 2 2 3 3
-2 -3 -3 -3 -3 -4 -3 -2 -4 -3 -4 -4 -3 -3 -4 -4 -4 -6 -4 -3 -3 -3 -4 -4 -3 -1 -0 0 1 1 2 2 2 3 3 3 3 3 3 2 2 1 1 1 1 1 2 3 3
-3 -4 -4 -4 -5 -5 -4 -3 -3 -4 -5 -5 -5 -5 -5 -4 -5 -5 -5 -4 -4 -3 -3 -3 -2 -2 -1 0 0 1 2 2 2 3 3 3 2 2 2 2 2 2 1 -0 0 1 2 3 3
-5 -5 -5 -5 -5 -5 -6 -4 -4 -4 -5 -5 -5 -5 -6 -7 -7 -6 -5 -5 -5 -4 -4 -3 -3 -3 -2 -1 -1 1 2 2 2 2 3 2 2 2 2 2 2 2 2 0 0 1 2 3 2
-5 -6 -6 -7 -7 -7 -7 -7 -5 -5 -5 -5 -6 -7 -7 -7 -7 -7 -6 -6 -5 -5 -4 -4 -4 -3 -2 -2 -1 1 2 2 2 1 1 2 2 2 2 1 1 1 1 1 0 1 2 2 1

GFSSGP_700_temp_201.txt.gz
Temp
13 13 13 13 13 12 12 12 12 12 12 12 12 12 12 12 12 12 12 12 12 12 12 11 11 11 11 11 10 10 10 10 10 9 9 9 9 8 8 8 8 8 8 8 8 8 9 9 8
13 13 13 13 12 13 12 12 12 12 12 11 12 11 11 12 12 12 12 12 12 12 12 11 11 11 11 11 10 10 10 10 10 9 9 9 9 9 8 8 8 8 8 8 8 8 8 8 8
13 13 13 12 12 12 12 12 12 12 12 11 11 11 11 11 11 11 11 11 12 12 11 11 11 11 11 10 10 10 10 10 9 9 9 9 9 9 9 9 8 8 8 7 7 7 8 8 8
12 12 12 12 12 12 12 11 11 11 11 12 11 11 11 11 11 11 11 11 11 11 11 11 11 10 10 10 10 10 10 10 9 9 9 9 9 9 8 8 8 8 8 7 7 7 7 8 8
12 12 12 12 11 12 11 12 11 11 11 12 12 11 11 11 11 11 11 11 11 11 11 11 11 10 10 10 10 10 9 9 9 9 9 8 8 8 8 8 8 8 8 8 7 7 7 7 7
12 12 12 11 11 11 11 11 11 11 11 11 11 11 11 11 11 10 10 10 10 10 10 10 10 10 10 9 9 9 9 9 9 9 9 8 8 8 8 8 7 7 7 7 7 7 7 7 7
11 12 12 11 11 11 11 11 11 11 11 11 10 11 11 11 10 10 11 11 10 10 10 10 10 9 9 9 9 9 9 9 9 9 8 8 8 8 8 8 7 7 7 7 7 7 7 7 7
11 11 12 11 11 10 11 11 11 11 11 10 10 10 11 11 11 11 11 10 10 10 10 10 9 9 9 9 8 8 8 8 8 8 8 8 8 8 8 8 7 7 7 7 7 6 6 6 7
11 11 11 11 11 11 10 10 10 10 10 10 10 10 10 10 10 9 10 10 10 10 10 10 9 9 9 8 8 8 8 8 8 8 8 8 8 8 8 7 7 7 7 7 7 6 6 6 6
11 11 11 11 10 10 10 10 10 11 10 11 10 9 9 9 8 8 8 9 10 10 10 9 9 9 9 8 8 8 8 8 8 8 8 8 8 7 7 7 7 7 7 7 6 6 6 6 5
11 11 10 10 10 10 10 10 10 10 11 10 9 9 9 9 8 8 8 7 8 8 8 8 8 8 8 8 8 7 7 8 7 7 7 7 7 7 7 7 7 7 7 7 6 6 6 6 5
11 10 10 10 10 10 10 10 10 10 10 10 11 10 9 9 8 8 8 8 8 7 8 8 8 8 8 8 8 8 7 6 7 7 7 7 7 7 7 7 7 7 6 6 6 5 6 5 5
10 10 10 10 10 10 10 10 10 10 9 10 10 10 10 9 9 8 8 8 8 8 8 8 8 8 7 7 7 7 7 7 7 7 7 6 6 7 7 7 7 7 6 6 5 5 5 5 5
10 10 10 10 9 10 10 10 9 9 9 9 9 9 8 8 9 9 9 8 8 8 8 8 8 7 7 7 7 7 7 6 6 6 6 6 6 6 6 7 6 6 6 6 5 5 5 5 5
10 10 10 9 9 9 8 9 8 8 8 7 7 7 7 7 7 7 7 7 7 7 7 7 6 6 6 6 6 6 6 6 6 6 6 6 7 6 6 6 6 6 6 5 5 5 5 5 4
9 9 9 9 9 8 7 8 7 7 6 6 6 6 6 6 6 6 6 6 6 6 6 6 6 6 5 5 5 5 6 6 6 6 6 7 6 6 6 5 5 4 5 5 5 5 5 5 5
8 8 8 8 7 7 6 5 6 6 6 7 6 6 6 5 6 6 6 5 5 5 5 5 5 5 5 5 5 5 5 5 5 5 6 6 5 6 6 5 5 5 5 5 5 5 5 5 4
6 6 6 5 6 5 6 6 6 5 5 5 5 5 5 5 5 5 5 5 5 5 5 5 5 5 5 5 5 5 5 5 5 5 5 5 5 5 5 5 5 5 4 4 4 4 5 5 4
5 4 4 5 5 4 5 5 5 4 5 5 4 4 4 5 5 5 5 5 5 5 5 5 5 5 5 4 4 4 5 5 5 5 5 5 5 5 5 5 4 4 4 4 4 3 5 4 4
5 4 4 4 4 4 4 4 4 3 3 3 3 3 3 4 4 4 3 3 3 3 4 4 5 5 5 4 4 4 4 5 5 5 5 5 5 5 5 5 5 4 4 4 4 4 4 5 4
4 4 4 3 3 3 3 3 3 2 2 2 2 2 2 2 2 2 2 2 2 2 2 2 3 3 4 4 3 3 3 4 5 4 4 4 5 5 5 5 5 5 5 5 4 4 4 3 3
3 3 2 2 2 1 1 0 1 1 1 1 1 1 0 1 1 1 1 0 -0 -1 -1 -0 0 1 2 3 3 3 3 3 3 4 4 4 5 5 6 5 5 5 4 4 4 3 4 3 2
1 1 1 1 1 1 1 -0 1 0 1 1 0 -0 -1 -1 -0 -0 -0 -2 -2 -2 -2 -2 -2 -1 -0 1 1 2 3 3 3 3 4 4 4 5 5 5 5 5 4 4 3 4 4 2 2
-0 -0 1 1 1 -2 -1 -3 -1 -0 -1 -1 -1 -1 -2 -2 -2 -2 -2 -2 -3 -3 -3 -2 -2 -2 -2 0 1 2 2 2 3 3 3 3 4 5 5 5 4 4 4 4 3 3 2 1 1
0 -0 -2 -3 -1 -1 -2 -2 -2 -2 -1 -2 -2 -3 -3 -3 -4 -4 -5 -5 -5 -4 -3 -3 -2 -2 -2 -1 0 1 1 2 2 3 3 3 4 4 4 4 4 4 4 3 3 3 2 1 1
-2 -3 -3 -5 -5 -4 -4 -4 -2 -3 -2 -3 -3 -4 -4 -6 -5 -5 -5 -5 -5 -4 -3 -3 -3 -3 -2 -2 -2 -2 1 1 2 2 3 3 3 4 3 3 3 3 3 3 2 2 1 2 2
-3 -4 -4 -4 -4 -5 -4 -3 -4 -3 -4 -4 -4 -5 -5 -4 -6 -5 -4 -5 -4 -3 -3 -3 -3 -3 -3 -3 -2 -1 -0 1 1 2 2 2 3 4 3 3 3 2 2 3 3 1 1 2 2
-4 -5 -5 -5 -9 -8 -5 -4 -4 -4 -5 -5 -5 -5 -5 -6 -6 -6 -6 -5 -5 -4 -4 -4 -4 -4 -3 -2 -2 -1 -0 0 1 2 1 2 3 3 3 3 3 2 2 2 2 1 0 0 1
-6 -6 -6 -6 -6 -8 -8 -6 -5 -5 -5 -5 -6 -6 -7 -7 -7 -7 -7 -6 -6 -5 -5 -4 -5 -4 -4 -3 -2 -2 -1 -0 1 1 1 2 2 2 3 2 2 2 2 1 1 0 0 1 1
-6 -7 -7 -7 -8 -8 -8 -7 -6 -6 -6 -6 -7 -6 -7 -7 -7 -8 -7 -7 -7 -6 -6 -6 -5 -5 -4 -3 -3 -2 -2 -1 -0 1 1 2 2 2 2 2 2 1 1 1 0 0 0 1 1

GFSSGP_700_temp_204.txt.gz
Temp
13 12 13 13 13 12 12 12 12 12 11 11 12 11 12 11 12 12 11 12 12 12 11 11 11 11 11 10 10 10 10 10 9 9 9 9 9 9 9 9 9 8 8 8 8 8 8 8 8
13 13 13 13 12 12 12 12 12 11 11 11 11 12 12 12 11 11 11 11 12 12 11 11 11 11 10 10 10 10 10 10 9 9 9 9 9 9 9 8 8 8 8 8 8 8 8 8 8
13 13 13 12 12 12 12 12 11 11 11 11 11 11 12 12 11 11 11 11 11 11 11 11 11 11 10 10 10 10 10 9 9 9 9 9 8 8 8 8 8 8 8 8 8 8 8 8 8
13 12 12 12 12 12 12 11 11 11 11 11 11 11 11 11 11 11 11 11 11 11 11 11 11 10 10 10 10 10 9 9 9 9 8 8 8 8 8 8 8 8 8 8 8 8 8 8 7
12 12 12 12 12 12 11 11 11 11 11 11 11 11 11 11 10 10 11 11 11 11 11 11 11 10 10 9 9 9 9 9 9 9 8 8 8 8 8 8 8 7 7 7 7 7 8 8 7
12 12 12 11 11 11 11 11 11 11 11 11 11 11 11 11 11 10 10 10 10 10 10 10 10 10 9 9 9 9 8 8 9 8 8 8 8 8 8 7 7 7 7 7 7 7 7 7 7
12 11 12 11 11 11 11 11 11 11 10 10 11 11 11 10 10 10 10 10 10 10 9 9 9 9 9 9 8 8 8 8 8 8 8 8 8 8 7 7 7 7 7 7 7 7 7 7 6
11 11 11 11 11 11 11 11 10 10 10 10 10 10 10 10 10 10 10 10 10 9 9 9 9 9 9 8 8 8 8 8 8 8 8 8 7 7 7 7 7 7 7 7 6 6 6 6 6
11 11 11 11 11 11 10 10 10 10 10 9 9 9 9 9 9 10 10 10 10 10 9 9 9 9 8 8 8 8 8 7 7 7 7 7 7 7 7 7 7 7 7 6 6 6 6 6 6
11 11 10 10 10 10 10 10 10 10 10 9 9 9 9 9 9 9 10 10 10 10 9 9 8 8 8 8 8 8 7 7 7 7 7 7 7 7 7 7 7 7 6 6 6 6 6 6 6
11 10 10 10 10 10 10 10 10 10 10 9 9 9 9 8 8 8 8 8 9 9 9 8 8 8 8 7 7 8 7 7 7 7 7 7 7 7 7 7 7 6 6 6 6 6 5 5 5
10 10 10 10 10 10 10 10 10 10 9 9 9 9 9 8 8 8 8 7 7 7 7 8 7 7 8 7 7 7 7 7 7 7 7 7 7 6 6 6 6 6 6 6 6 6 5 5 5
10 10 10 9 9 10 10 10 9 8 8 8 8 8 8 8 8 8 8 8 8 8 7 7 7 7 7 6 6 6 6 6 7 7 7 7 7 6 6 6 6 6 6 6 6 5 5 5 5
10 10 10 10 9 9 9 9 9 8 8 8 8 8 8 8 8 7 7 7 8 7 7 7 7 7 6 6 6 6 6 6 6 6 6 6 7 6 6 6 6 6 6 6 6 5 5 5 5
9 10 9 9 9 8 9 9 8 8 8 8 7 7 7 6 6 6 7 7 7 7 7 7 7 6 6 6 5 5 5 5 5 5 5 6 6 6 6 5 5 6 5 6 5 5 5 5 5
9 9 9 8 8 8 7 7 7 7 7 7 6 6 6 6 5 6 6 6 6 6 6 6 6 6 5 5 5 5 5 5 5 5 5 5 5 5 6 5 5 5 5 5 5 5 5 5 5
8 7 7 8 7 7 6 7 7 6 6 6 6 5 5 5 5 5 5 5 5 5 5 5 5 5 5 5 5 5 5 5 5 5 5 5 5 5 5 5 5 5 5 5 5 5 5 4 4
6 6 6 5 6 6 6 7 5 5 4 4 5 5 4 4 5 5 5 4 4 5 5 5 5 4 5 5 5 5 4 4 5 5 4 5 5 5 5 4 5 5 5 5 5 4 3 3 3
5 4 5 5 4 5 4 4 5 4 5 4 3 3 3 3 3 3 3 3 2 2 2 3 3 3 3 3 4 4 4 4 4 4 4 4 5 5 5 5 5 5 5 5 4 4 4 3 3
4 4 4 4 3 3 4 4 3 3 3 3 3 2 2 2 1 1 1 1 1 1 1 1 1 2 2 2 2 3 3 3 4 4 4 4 4 5 5 5 5 5 5 4 4 4 4 3 3
4 3 2 1 2 2 2 2 2 2 1 1 1 1 0 0 0 0 0 0 0 -0 -0 -1 -1 -1 -0 0 0 1 2 3 3 4 4 4 4 4 5 5 5 5 5 5 4 4 4 4 3
2 2 1 2 1 0 1 -0 1 1 0 0 0 -0 -0 -0 -1 -1 -1 -1 -2 -2 -3 -3 -2 -1 -1 -1 -1 -1 1 1 0 3 4 3 4 4 4 5 5 5 4 4 4 4 4 4 4
1 0 0 0 1 0 -1 -1 0 0 -1 -1 -1 -1 -2 -2 -2 -2 -3 -3 -3 -3 -2 -3 -3 -3 -2 -2 -2 -1 -1 -0 -0 2 3 3 3 4 4 5 5 4 4 4 4 4 4 4 3
-1 -0 0 1 0 -3 -3 -3 -2 -1 -1 -1 -2 -3 -3 -3 -4 -4 -5 -5 -5 -4 -4 -3 -3 -3 -3 -2 -1 -1 -2 -1 -0 1 2 3 3 4 4 4 4 4 4 4 3 3 3 3 3
-0 -1 -2 -3 -2 -3 -2 -3 -2 -2 -2 -2 -3 -3 -4 -4 -5 -5 -5 -5 -5 -4 -4 -4 -3 -3 -3 -3 -3 -2 -2 -1 -1 -0 2 3 3 3 3 4 4 4 3 3 3 3 3 3 3
-3 -4 -3 -5 -6 -4 -4 -5 -2 -3 -3 -3 -4 -5 -5 -5 -5 -5 -6 -5 -5 -5 -4 -4 -3 -3 -3 -3 -4 -3 -2 -2 -2 0 1 2 3 3 3 4 3 3 3 3 3 3 3 3 2
-4 -4 -4 -5 -5 -7 -5 -4 -4 -4 -4 -5 -5 -5 -6 -6 -6 -6 -6 -6 -5 -5 -4 -4 -4 -4 -4 -4 -4 -5 -4 -3 -2 -0 1 2 2 2 3 3 3 3 3 3 2 3 3 2 2
-4 -5 -5 -6 -10 -8 -6 -5 -5 -5 -5 -5 -6 -6 -6 -6 -7 -7 -7 -7 -7 -7 -6 -6 -6 -6 -5 -4 -4 -5 -3 -2 -1 0 1 1 2 2 2 2 2 3 3 3 2 2 2 2 2
-6 -6 -6 -7 -7 -12 -10 -7 -6 -6 -6 -6 -7 -7 -7 -7 -8 -7 -7 -8 -8 -7 -7 -7 -7 -7 -6 -5 -4 -3 -3 -2 -1 0 1 1 1 2 2 2 2 3 2 2 2 2 2 1 1
-6 -7 -7 -9 -8 -8 -9 -9 -7 -7 -7 -7 -6 -6 -8 -8 -7 -7 -8 -8 -8 -8 -8 -8 -7 -7 -7 -6 -4 -4 -3 -2 -1 0 1 1 1 2 1 1 2 2 2 1 1 1 1 1 0

GFSSGP_700_temp_207.txt.gz
Temp
13 12 13 13 13 13 12 12 12 12 11 11 11 11 11 11 11 11 11 11 12 11 11 11 11 11 10 10 10 10 10 10 9 9 9 9 9 9 9 8 8 8 8 8 8 8 8 8 8
13 13 13 13 13 12 12 12 12 11 11 11 11 11 11 11 11 11 11 11 11 12 11 11 11 11 10 10 10 10 10 9 9 9 9 9 8 8 8 8 8 8 8 8 8 8 8 8 8
13 13 13 13 12 12 12 12 11 11 11 11 11 11 11 11 11 11 10 11 11 11 11 11 10 10 10 10 10 9 9 9 9 9 9 8 8 8 8 8 8 8 8 8 8 8 8 7 7
12 12 12 13 12 12 12 12 11 11 11 11 11 11 11 11 10 10 10 11 11 11 11 11 11 10 10 10 9 9 9 9 9 9 8 8 8 8 8 8 8 8 7 8 8 8 7 7 7
13 12 12 12 12 12 11 11 11 11 11 11 11 11 11 10 10 10 10 10 11 10 10 10 10 10 9 9 9 9 9 9 9 8 8 8 8 8 8 8 7 7 7 7 7 7 7 7 7
12 12 12 12 12 11 11 11 11 11 11 11 11 10 10 10 10 10 10 10 10 10 10 10 9 10 10 9 9 8 8 8 8 8 8 8 8 8 7 7 7 7 7 7 7 7 7 7 7
12 12 12 11 11 11 11 11 11 11 10 10 10 10 10 10 10 10 10 10 9 9 9 9 9 9 9 9 9 9 8 8 8 8 8 8 7 7 7 7 7 7 7 6 6 7 7 7 6
11 11 11 11 11 11 11 10 10 10 10 10 10 10 10 9 9 9 9 9 9 9 9 9 9 9 9 8 8 8 8 8 8 8 7 7 7 7 7 7 7 7 7 7 6 6 6 6 6
11 11 11 11 10 10 10 10 10 10 9 9 9 9 9 9 9 9 9 9 9 9 8 8 8 8 8 8 8 8 7 7 8 8 7 7 7 7 7 7 7 6 6 6 6 6 6 6 6
10 10 10 10 10 10 10 9 9 9 9 8 9 9 9 9 9 9 9 8 8 8 8 8 8 8 7 7 7 7 7 7 7 7 7 7 7 7 7 7 7 6 6 6 6 6 6 6 6
10 10 10 9 9 9 9 9 9 9 8 8 8 8 8 8 8 8 8 8 8 8 8 7 7 7 7 6 6 6 6 7 7 6 6 7 7 7 7 7 7 6 6 6 6 6 5 6 6
10 10 9 9 9 9 9 9 9 8 8 7 7 8 8 8 8 8 8 8 9 8 8 8 8 7 7 6 6 6 6 6 6 6 6 6 6 7 7 7 7 6 6 6 6 6 5 5 6
10 9 9 9 9 9 9 9 9 8 7 8 8 7 8 8 8 8 8 8 8 8 8 8 8 7 7 7 6 6 6 6 6 7 6 6 6 6 6 6 6 6 6 6 6 6 5 5 5
9 9 9 9 9 9 8 8 8 8 8 8 8 8 8 8 7 8 7 7 8 8 7 8 7 7 7 6 6 6 6 5 5 6 6 6 6 5 5 5 6 6 6 6 6 6 5 5 5
10 10 9 9 9 8 8 9 8 8 8 7 7 7 7 7 7 6 6 6 6 6 6 6 6 6 6 6 6 6 6 5 5 5 5 5 5 5 5 5 5 5 5 5 5 5 5 5 5
9 9 9 8 8 7 7 7 7 6 6 6 6 6 6 6 5 5 5 5 5 5 5 5 5 5 5 5 5 5 5 5 5 5 5 4 4 5 5 5 5 5 5 4 5 5 5 4 4
8 7 7 7 6 6 6 6 6 5 5 5 6 5 5 4 4 4 4 4 4 4 4 4 4 4 4 4 4 4 4 4 5 4 4 4 5 4 4 5 5 5 5 4 4 4 4 4 4
6 5 5 5 5 6 6 6 5 5 5 5 5 4 4 4 3 3 3 3 3 3 3 3 3 3 3 3 3 3 3 3 3 4 4 4 4 5 4 5 5 5 4 4 4 4 4 4 3
5 4 4 4 4 3 3 4 4 4 4 3 3 2 3 2 2 2 1 1 1 1 1 1 1 0 1 1 1 1 1 1 2 2 3 4 4 4 4 4 5 5 4 4 3 4 4 4 4
4 4 4 4 3 3 4 5 4 3 2 2 2 2 1 1 0 -0 -1 -1 -1 -1 -1 -1 -1 -1 -1 -1 -1 -1 -0 -0 1 1 2 3 4 4 4 4 4 4 5 4 4 4 4 4 4
5 4 3 2 2 2 2 3 2 2 2 1 1 0 -1 -1 -1 -1 -2 -2 -2 -2 -2 -2 -2 -3 -3 -2 -2 -1 -1 -0 -0 1 -0 1 3 3 4 4 5 4 4 4 4 4 4 4 4
3 2 1 1 1 1 -0 0 1 0 0 -0 -1 -1 -2 -2 -3 -3 -4 -4 -4 -4 -4 -3 -3 -2 -2 -2 -1 -1 -1 -1 -1 -0 1 2 2 2 3 3 4 5 5 4 4 4 4 4 4
1 0 0 1 1 -0 -1 -2 0 -1 -1 -2 -2 -2 -3 -4 -4 -5 -5 -5 -5 -4 -4 -4 -3 -3 -3 -3 -3 -3 -2 -1 -0 -1 -0 1 1 2 2 3 3 4 4 4 4 4 3 3 4
-0 -1 1 1 -0 -2 -3 -4 -2 -1 -2 -2 -3 -4 -4 -5 -6 -6 -6 -6 -5 -5 -5 -4 -4 -4 -3 -3 -3 -3 -3 -3 -1 -1 -1 -0 1 2 2 3 3 4 4 4 4 3 3 3 3
-1 -1 -1 -1 0 -0 -3 -4 -1 -2 -3 -3 -4 -5 -6 -6 -6 -6 -6 -6 -6 -5 -5 -5 -4 -4 -4 -4 -4 -4 -3 -3 -3 -2 -1 -1 1 1 2 3 3 3 4 4 3 3 3 3 3
-3 -4 -3 -4 -2 -2 -4 -4 -3 -4 -4 -5 -5 -6 -6 -6 -7 -7 -7 -7 -7 -6 -6 -6 -6 -4 -5 -5 -5 -4 -4 -4 -4 -3 -2 -0 -0 0 1 2 2 3 3 3 3 3 3 3 3
-4 -4 -5 -6 -6 -7 -5 -4 -4 -4 -5 -5 -6 -6 -6 -6 -6 -7 -7 -7 -7 -7 -7 -7 -7 -7 -7 -6 -5 -5 -4 -4 -4 -4 -2 -2 0 0 1 2 2 2 3 3 3 3 3 3 2
-5 -6 -6 -6 -8 -7 -6 -6 -5 -6 -6 -6 -7 -7 -6 -6 -6 -7 -7 -7 -7 -8 -8 -8 -8 -8 -8 -7 -6 -6 -5 -5 -5 -5 -3 -2 -1 -0 1 1 2 2 2 2 3 2 2 2 2
-6 -7 -7 -7 -7 -8 -8 -6 -6 -7 -7 -7 -7 -7 -7 -7 -7 -7 -7 -7 -8 -8 -8 -8 -8 -8 -7 -7 -7 -7 -5 -4 -5 -3 -2 -2 -0 1 1 1 1 1 2 2 3 2 2 2 2
-6 -8 -8 -9 -8 -8 -9 -8 -8 -7 -7 -8 -7 -7 -7 -7 -7 -7 -7 -8 -8 -8 -8 -8 -9 -8 -8 -7 -7 -7 -6 -5 -3 -3 -3 -1 -0 0 1 0 -0 1 2 2 2 2 1 2 1

GFSSGP_700_temp_210.txt.gz
Temp
13 13 13 13 13 13 13 12 12 11 11 11 11 11 11 11 11 11 11 11 11 12 12 11 11 11 10 10 10 10 10 9 9 9 9 9 8 8 8 8 8 8 8 8 8 8 8 8 8
13 13 13 13 12 14 14 12 11 12 12 11 11 11 11 11 11 11 11 11 11 11 11 11 11 11 10 10 10 10 10 9 9 9 9 9 8 8 8 8 8 8 8 8 8 8 8 8 8
13 13 12 13 12 14 13 12 12 12 12 11 11 11 11 10 11 10 10 10 11 11 11 11 11 10 10 10 10 10 9 9 9 9 9 8 8 8 8 8 8 8 8 8 8 7 7 8 8
13 12 12 12 12 12 11 11 12 11 11 11 11 10 11 10 10 10 10 10 10 10 10 10 10 10 9 9 9 9 9 9 9 9 8 8 8 8 8 8 8 8 8 8 8 7 7 7 7
12 12 11 12 11 12 11 11 11 11 11 11 11 10 10 10 10 10 10 10 10 10 10 10 10 10 10 9 9 9 9 9 8 8 8 8 8 8 8 7 7 7 7 7 7 7 7 7 7
12 12 12 12 11 11 11 11 11 11 11 11 10 10 9 10 10 10 10 10 9 9 9 9 9 9 9 9 9 9 9 9 8 8 8 8 8 8 7 7 7 7 7 7 7 7 7 7 7
11 12 11 12 11 10 11 11 11 11 10 10 10 9 9 9 9 9 9 9 9 9 9 9 9 9 9 9 9 9 9 8 8 8 8 8 8 8 7 7 7 7 7 7 7 7 7 7 6
11 11 11 11 10 10 10 10 10 10 10 10 10 9 8 10 9 9 9 9 8 8 8 8 8 8 8 8 8 8 8 8 8 8 8 8 8 8 7 7 7 7 7 6 6 7 7 6 6
11 11 10 10 10 10 10 10 10 9 9 9 9 9 9 9 9 9 9 8 8 8 8 8 8 8 8 7 7 7 7 7 7 7 7 7 7 7 7 7 7 7 7 6 6 6 6 6 6
11 10 10 10 10 9 9 9 9 9 9 8 9 9 9 9 9 9 9 8 8 8 8 8 8 7 7 7 7 7 7 7 7 7 6 7 7 7 7 7 7 7 6 6 6 6 6 6 6
10 10 10 9 9 9 9 9 9 9 8 8 8 8 8 8 8 9 9 8 8 8 8 8 8 8 7 7 7 7 7 7 7 7 6 6 6 6 7 7 7 7 7 6 6 6 6 6 6
10 10 9 9 9 9 9 9 9 8 8 7 8 8 8 8 8 8 8 8 8 8 8 8 8 7 7 7 7 7 6 7 6 6 6 6 6 6 6 6 6 6 7 6 6 6 6 6 6
10 9 9 9 9 9 8 8 8 8 8 8 7 7 7 7 7 7 7 7 8 8 8 8 7 7 7 7 6 6 6 6 6 6 6 5 6 6 6 6 6 5 6 6 6 6 6 6 6
9 9 9 9 9 9 8 8 8 8 7 8 7 8 7 7 7 7 7 7 7 6 6 7 6 6 6 6 6 6 6 6 6 6 6 5 5 5 5 6 5 5 5 5 5 5 5 6 6
9 9 9 9 9 8 8 7 7 7 7 7 7 7 7 7 7 7 6 6 5 5 5 5 5 5 5 5 5 5 5 5 5 5 5 5 5 5 5 5 5 5 5 5 5 5 5 5 5
9 9 8 7 8 8 7 8 7 7 7 7 7 7 7 7 6 6 5 4 4 4 4 4 4 4 4 4 5 5 5 4 4 4 4 4 4 5 5 5 5 5 5 5 4 4 5 5 5
8 8 6 6 8 7 7 7 6 6 6 6 6 6 6 5 5 4 3 3 3 3 3 3 3 3 3 3 3 3 3 4 4 4 4 4 4 4 4 4 5 5 5 4 4 4 4 4 4
6 6 6 5 5 6 6 4 4 5 5 4 4 4 4 2 2 2 2 2 1 1 1 1 1 1 2 2 2 2 2 2 2 3 3 3 4 4 4 4 4 5 4 4 4 4 4 5 4
5 4 4 4 4 4 4 3 3 6 4 3 3 2 2 2 1 1 1 -0 -0 -0 -1 -1 -0 -0 -0 0 -0 -0 -0 -0 -0 0 1 2 3 3 3 4 4 4 4 4 4 4 4 4 4
4 3 3 3 3 3 2 3 1 3 3 2 1 1 0 -0 -0 -1 -1 -2 -2 -2 -2 -2 -2 -2 -1 -1 -1 -1 -1 -1 -1 -1 -0 0 1 2 3 3 4 4 4 4 4 4 3 4 4
3 3 3 2 2 2 1 4 3 2 1 0 0 -1 -2 -2 -2 -3 -3 -3 -3 -3 -3 -3 -3 -3 -3 -2 -2 -2 -1 -1 -1 -1 -1 -0 -0 1 2 2 3 4 4 4 4 4 3 4 4
2 2 2 1 1 3 0 4 3 1 -0 -1 -2 -2 -2 -3 -4 -4 -4 -4 -4 -4 -4 -4 -4 -4 -3 -3 -3 -2 -2 -2 -2 -2 -1 -1 -0 -0 -0 1 2 3 3 4 4 4 3 3 4
1 2 2 1 1 -0 1 1 3 0 -2 -3 -3 -3 -3 -5 -5 -5 -5 -5 -5 -5 -6 -5 -5 -5 -4 -4 -4 -4 -3 -3 -3 -3 -2 -2 -1 -0 -1 1 1 2 3 3 4 4 3 3 3
1 -0 1 1 0 3 -0 -1 3 0 -3 -4 -4 -5 -6 -5 -5 -5 -5 -5 -6 -6 -6 -6 -6 -6 -5 -5 -5 -4 -4 -4 -3 -3 -3 -2 -2 -1 -1 0 0 1 2 3 3 3 3 3 3
-1 -1 2 5 5 6 -1 -2 1 -3 -4 -4 -5 -5 -6 -6 -6 -6 -6 -6 -7 -7 -7 -7 -7 -7 -7 -6 -6 -6 -5 -5 -4 -4 -3 -3 -2 -2 -2 -1 0 1 2 3 3 3 3 3 3
-3 -3 -1 -1 2 1 -2 -1 -1 -3 -4 -5 -6 -7 -7 -6 -6 -6 -6 -7 -7 -7 -7 -7 -8 -8 -7 -7 -7 -7 -7 -6 -5 -4 -3 -4 -3 -2 -2 -1 -0 1 2 2 3 3 3 3 3
-3 -3 -4 -4 -3 -3 -1 -2 -2 -4 -5 -6 -7 -7 -6 -6 -6 -7 -7 -7 -7 -8 -7 -8 -8 -8 -8 -8 -8 -7 -7 -7 -6 -5 -4 -4 -4 -3 -2 -2 -0 1 1 2 2 3 3 3 3
-5 -6 -4 -3 -4 -3 -1 -2 -2 -5 -6 -7 -7 -8 -7 -7 -7 -7 -7 -7 -7 -7 -8 -8 -8 -9 -9 -8 -8 -8 -7 -7 -6 -6 -5 -5 -4 -3 -1 -1 0 0 1 2 3 3 3 3 3
-6 -6 -6 -6 -5 -4 -4 -3 -4 -6 -7 -8 -8 -8 -7 -7 -7 -7 -8 -8 -8 -8 -8 -9 -9 -9 -9 -9 -8 -8 -7 -7 -6 -6 -5 -5 -3 -2 -1 -1 0 1 2 2 2 2 2 2 2
-6 -7 -7 -7 -6 -6 -6 -6 -6 -7 -7 -8 -8 -8 -7 -7 -8 -8 -8 -8 -8 -8 -9 -9 -9 -9 -8 -9 -8 -7 -7 -7 -7 -6 -5 -4 -3 -2 -2 -0 1 1 1 1 1 2 1 2 2

GFSSGP_700_temp_216.txt.gz
Temp
13 13 13 13 13 14 14 14 13 13 13 12 12 13 12 12 11 10 11 11 11 11 11 11 11 10 10 10 10 10 10 9 9 9 9 9 9 9 9 9 9 9 9 9 8 8 8 8 8
13 13 13 13 13 13 15 14 13 12 12 12 12 12 12 11 10 10 11 10 10 10 10 10 11 10 10 10 10 10 10 9 9 9 9 9 8 8 8 8 8 8 8 8 8 8 8 8 8
13 13 13 12 13 14 14 13 12 12 11 12 12 12 12 10 9 9 10 10 10 10 10 10 10 10 10 10 9 9 9 9 9 9 9 9 8 8 8 8 8 8 8 8 8 8 8 8 8
13 13 12 13 13 13 13 12 12 12 12 12 12 11 10 10 10 10 9 9 8 9 10 9 9 10 10 9 9 9 9 9 9 9 9 9 8 8 8 8 8 8 8 7 7 8 8 8 8
12 12 12 13 14 13 12 11 11 12 11 11 11 11 10 9 10 10 9 9 7 7 8 9 9 9 9 9 9 9 9 9 8 8 8 8 8 8 8 8 8 8 8 7 7 7 7 8 8
12 12 13 14 13 12 11 11 11 11 11 11 11 11 9 8 9 8 8 7 7 7 8 9 8 8 8 8 8 8 8 8 8 8 8 8 8 8 8 8 8 8 8 8 7 7 7 8 8
12 11 12 13 13 12 11 10 11 11 11 10 11 10 9 9 9 9 9 8 7 7 7 8 9 9 8 8 8 8 8 8 8 8 8 8 8 8 8 8 8 8 8 8 7 7 7 8 8
12 12 12 12 12 10 10 9 10 11 9 9 10 10 9 10 9 9 9 6 7 8 9 9 8 8 8 8 7 8 8 8 8 8 8 7 7 7 7 8 8 8 8 8 7 7 7 7 8
11 11 11 10 10 9 9 9 9 10 10 9 8 9 10 10 9 8 7 7 7 7 8 8 8 8 7 8 8 7 7 7 7 7 7 7 7 7 7 7 7 7 7 7 7 7 7 7 7
10 10 10 10 10 10 9 9 9 10 9 9 9 9 9 9 9 8 9 8 8 8 8 8 7 7 7 7 7 7 7 7 7 7 7 7 7 7 7 8 8 7 7 7 7 7 7 7 7
10 10 10 10 10 10 10 9 9 10 9 10 9 9 9 9 9 8 8 9 8 9 8 8 8 8 8 7 7 7 7 7 7 7 7 7 6 6 7 6 7 7 7 6 6 7 7 7 7
9 10 10 10 10 10 10 10 8 10 10 9 9 9 9 9 9 9 8 8 8 8 8 8 7 7 7 7 7 7 6 6 7 6 6 6 6 7 6 6 7 6 6 6 4 6 6 7 7
9 10 10 11 11 10 10 9 8 9 9 9 8 8 8 8 7 7 7 7 7 8 8 8 8 7 7 7 6 6 6 6 6 6 6 6 6 6 6 6 6 7 6 6 6 5 6 6 6
10 10 10 10 9 9 9 9 8 8 9 8 7 8 9 8 7 7 7 7 6 6 6 6 7 7 6 6 5 5 5 4 5 5 5 5 5 5 5 5 5 6 6 5 5 5 5 6 6
10 8 9 8 9 9 9 9 9 7 7 6 6 4 6 7 7 7 6 6 6 5 5 5 4 4 4 4 4 4 3 4 4 4 4 4 5 5 5 5 5 5 5 5 5 5 5 5 5
9 10 10 9 8 7 8 9 7 6 6 6 5 4 4 5 5 5 4 4 4 3 3 2 2 2 3 3 3 3 3 2 2 3 3 3 3 4 4 4 4 4 4 5 5 5 5 5 5
9 8 8 8 8 8 8 9 8 7 6 6 5 5 4 3 1 2 1 1 1 0 0 1 1 1 1 1 1 1 1 1 1 1 1 2 2 2 3 4 4 4 4 4 5 5 4 4 4
7 8 7 7 8 8 8 8 7 6 5 5 4 4 1 -1 -1 -1 -1 -1 -1 -1 -1 -0 -0 -0 -0 -0 -0 -0 -0 -0 0 0 1 0 1 1 1 2 3 3 3 4 4 4 4 4 4
7 6 6 8 7 7 9 8 8 6 4 4 3 2 -1 -2 -2 -3 -4 -4 -3 -4 -4 -2 -1 -1 -1 -1 -2 -3 -3 -2 -2 -2 -2 -1 -0 -0 1 1 1 2 3 3 3 4 4 4 4
6 6 6 7 7 6 7 6 5 5 5 4 2 0 -2 -3 -4 -4 -4 -5 -5 -5 -5 -5 -4 -3 -3 -3 -4 -4 -4 -4 -4 -3 -3 -3 -2 -2 -1 -0 0 1 1 2 3 3 4 4 4
5 5 6 5 5 6 5 6 6 4 4 3 0 -2 -3 -4 -4 -5 -5 -5 -5 -5 -6 -6 -6 -4 -6 -5 -6 -5 -5 -5 -5 -4 -4 -4 -4 -3 -2 -2 -1 -0 -0 1 1 2 3 3 4
5 5 5 4 2 3 4 3 4 4 2 -1 -2 -3 -4 -4 -5 -5 -5 -5 -4 -4 -5 -7 -7 -6 -7 -7 -7 -7 -6 -6 -6 -5 -5 -4 -4 -4 -3 -3 -2 -1 -1 -0 0 1 2 2 3
3 3 4 4 3 2 4 3 3 3 -0 -2 -3 -4 -4 -5 -5 -6 -6 -6 -5 -6 -6 -7 -7 -7 -8 -8 -8 -8 -7 -7 -7 -6 -6 -6 -5 -4 -3 -3 -3 -2 -2 -2 -1 0 1 1 2
1 2 6 6 4 3 2 1 3 2 -1 -2 -4 -5 -5 -6 -6 -6 -6 -5 -5 -6 -7 -8 -8 -8 -7 -8 -8 -9 -9 -8 -8 -7 -6 -6 -5 -5 -4 -3 -3 -3 -2 -1 -1 -1 -1 0 1
2 0 3 3 3 3 4 1 -0 -1 -1 -3 -4 -5 -5 -6 -6 -7 -7 -7 -6 -6 -6 -7 -7 -8 -8 -8 -9 -9 -9 -9 -9 -8 -7 -6 -6 -5 -4 -4 -4 -4 -3 -3 -2 -2 -1 -1 -0
-1 -1 -1 -2 -1 -1 -1 1 -0 -1 -3 -4 -5 -5 -6 -6 -7 -7 -7 -8 -8 -8 -8 -8 -9 -9 -9 -9 -9 -9 -9 -9 -9 -9 -8 -7 -7 -6 -5 -4 -4 -4 -4 -4 -3 -2 -1 -1 -2
-0 -2 -2 -3 -2 -2 -0 0 0 -1 -2 -5 -6 -6 -6 -7 -7 -7 -8 -8 -8 -8 -9 -9 -9 -9 -9 -9 -10 -9 -9 -9 -9 -8 -8 -7 -7 -7 -6 -5 -5 -4 -4 -4 -4 -3 -1 -1 -1
-3 -3 -3 -3 -6 -5 -2 -3 -3 -4 -4 -6 -7 -7 -7 -7 -7 -8 -8 -8 -8 -9 -9 -8 -9 -9 -10 -10 -9 -9 -9 -8 -8 -8 -7 -7 -7 -6 -6 -5 -5 -4 -4 -4 -4 -3 -2 -1 -1
-2 -3 -4 -4 -4 -6 -6 -5 -5 -6 -6 -6 -7 -8 -8 -8 -8 -8 -8 -8 -8 -9 -8 -8 -9 -10 -10 -10 -9 -9 -9 -8 -8 -8 -7 -7 -7 -7 -6 -5 -4 -4 -4 -3 -3 -2 -1 -1 0
-4 -5 -6 -6 -7 -7 -8 -8 -6 -7 -8 -7 -8 -9 -8 -8 -8 -8 -9 -9 -9 -9 -9 -9 -9 -10 -10 -9 -9 -9 -8 -8 -8 -8 -7 -7 -7 -6 -5 -5 -5 -4 -3 -3 -2 -1 -1 -0 1

GFSSGP_700_temp_219.txt.gz
Temp
12 13 13 13 13 13 13 13 13 13 12 12 12 11 11 11 11 11 10 10 10 10 10 10 10 10 10 10 10 10 9 9 9 9 9 9 9 9 9 9 9 9 9 9 9 9 9 8 8
12 13 13 13 13 13 12 12 13 12 12 12 12 11 11 10 10 11 10 10 10 10 10 10 10 10 10 10 9 9 9 9 9 9 9 9 8 8 8 8 8 8 9 9 9 9 8 8 8
13 13 13 14 12 13 12 12 12 12 12 12 12 11 11 9 10 10 10 9 10 10 9 9 9 10 10 10 9 9 9 9 9 9 9 9 9 8 8 8 8 8 8 8 8 8 8 8 8
13 13 13 13 12 12 12 12 12 11 11 12 11 11 10 10 10 10 9 9 8 10 10 10 9 9 9 9 9 9 9 9 9 9 8 8 8 8 8 8 8 8 8 8 8 8 8 8 8
12 13 13 13 11 11 12 12 11 11 11 11 10 9 9 9 9 9 9 8 7 7 7 8 9 8 9 8 8 8 8 8 8 8 8 8 8 8 8 8 8 8 8 8 8 8 8 8 8
12 12 12 12 11 11 11 11 11 11 11 11 10 9 9 8 8 8 7 7 7 8 9 9 8 9 9 9 9 8 8 8 8 8 8 8 8 8 8 8 8 8 8 8 8 8 7 7 7
12 12 12 12 12 11 11 11 11 11 10 10 10 9 8 8 8 8 8 8 9 8 9 9 9 8 8 8 8 8 8 8 8 8 8 8 8 8 8 8 8 8 8 7 7 7 7 7 7
12 12 11 11 11 10 10 11 11 10 10 10 10 10 9 9 9 9 8 8 8 8 8 8 8 9 8 8 8 7 8 7 7 7 7 7 8 8 8 8 8 7 7 7 7 7 7 7 7
11 11 11 11 11 10 10 10 10 9 9 9 9 10 10 9 9 9 9 7 7 6 6 7 7 7 7 8 8 8 7 7 7 7 7 7 7 7 7 7 7 8 7 7 7 7 7 7 7
11 10 10 11 10 10 10 10 10 9 9 9 9 9 9 9 9 9 9 8 8 7 7 7 6 6 6 7 7 7 7 7 7 7 7 7 7 7 7 7 7 7 7 7 7 6 6 7 7
10 10 10 10 10 10 10 10 9 9 9 9 9 9 9 9 8 8 8 8 8 8 7 7 7 7 7 6 6 6 6 7 7 7 6 6 6 7 6 6 7 7 7 6 6 6 7 7 7
10 10 10 10 10 10 9 9 10 9 8 8 8 8 8 8 7 7 7 7 7 8 7 7 7 7 7 7 6 6 6 6 6 6 6 6 6 6 6 6 6 6 6 6 6 6 6 6 6
10 10 10 10 9 9 9 9 9 8 8 8 8 8 7 7 7 6 6 6 7 7 7 6 6 6 6 6 6 5 5 5 5 5 5 5 5 6 6 6 5 5 6 5 5 5 5 6 6
10 9 9 9 9 10 10 10 9 10 8 7 7 6 6 7 6 6 6 5 5 5 5 5 4 4 3 3 3 3 3 3 3 3 3 4 4 5 5 5 5 5 5 5 5 5 5 6 6
9 8 8 8 9 10 10 9 9 6 6 6 5 5 5 5 5 5 5 4 4 3 3 2 1 1 1 1 1 1 1 1 2 2 2 2 2 3 4 4 4 4 4 4 4 5 5 5 5
9 9 9 9 9 9 9 8 7 6 5 5 5 5 5 5 4 4 3 2 1 0 0 0 -0 -0 -0 -0 -0 0 0 0 1 1 1 1 1 1 2 3 4 3 4 4 4 4 4 5 5
9 9 9 8 8 8 8 9 7 6 6 5 4 4 3 2 1 -0 -1 -2 -2 -2 -1 -1 -1 -0 -1 -1 -1 -0 -0 -0 -0 -0 0 1 0 0 1 2 2 3 3 3 3 4 4 4 4
9 8 8 8 7 8 9 7 7 6 4 4 4 4 3 1 -1 -3 -4 -4 -5 -4 -3 -2 -2 -1 -0 -1 -1 -2 -1 -1 -1 -2 -1 -1 -1 -1 -0 0 1 1 2 2 2 3 3 4 4
8 7 7 8 7 7 8 7 6 6 4 3 3 2 0 -1 -2 -3 -4 -5 -5 -4 -4 -3 -3 -2 -2 -2 -2 -2 -3 -4 -3 -4 -4 -4 -3 -3 -3 -2 -0 -0 0 1 1 2 2 3 3
7 7 6 7 7 6 6 4 5 3 4 3 1 -0 -1 -2 -4 -4 -4 -4 -4 -4 -4 -4 -4 -4 -5 -4 -4 -5 -5 -5 -5 -5 -5 -6 -5 -4 -4 -3 -3 -2 -1 -0 1 1 1 2 3
6 6 5 5 4 5 4 3 3 3 1 0 -1 -2 -3 -4 -4 -5 -5 -5 -4 -4 -4 -5 -6 -6 -6 -7 -6 -6 -6 -6 -6 -6 -6 -6 -6 -5 -5 -4 -4 -3 -3 -2 -1 -0 0 1 2
5 4 4 5 2 2 1 1 2 -0 -0 -2 -3 -3 -3 -4 -5 -5 -5 -5 -5 -6 -6 -6 -7 -7 -7 -7 -7 -7 -7 -8 -7 -7 -7 -7 -7 -7 -6 -5 -4 -4 -3 -3 -2 -1 -1 -0 1
3 2 5 6 4 1 1 2 -1 -2 -2 -2 -3 -4 -4 -5 -6 -6 -6 -6 -6 -6 -5 -6 -6 -6 -7 -8 -8 -8 -8 -8 -8 -8 -8 -8 -7 -7 -7 -6 -5 -4 -3 -3 -3 -2 -2 -1 -0
2 3 6 5 5 0 -0 0 -1 -3 -4 -4 -5 -6 -6 -6 -6 -6 -6 -6 -6 -6 -6 -6 -6 -6 -7 -8 -9 -9 -9 -9 -9 -9 -9 -8 -8 -7 -7 -7 -6 -5 -4 -3 -3 -3 -2 -2 -1
1 2 1 1 0 0 2 -0 -3 -4 -4 -5 -6 -6 -7 -7 -7 -7 -7 -8 -8 -7 -7 -6 -7 -7 -7 -8 -9 -9 -9 -9 -10 -10 -9 -9 -8 -8 -7 -7 -7 -6 -5 -4 -3 -3 -2 -2 -2
-1 -1 -1 -3 -4 -2 -2 -1 -3 -3 -4 -7 -7 -7 -8 -8 -8 -8 -8 -8 -8 -8 -8 -8 -8 -8 -8 -8 -8 -9 -9 -10 -10 -10 -9 -9 -8 -8 -7 -7 -7 -7 -6 -4 -4 -3 -3 -2 -2
-1 -3 -3 -3 -3 -5 -2 -2 -2 -3 -5 -6 -8 -8 -8 -8 -8 -8 -8 -8 -8 -9 -9 -9 -9 -8 -8 -9 -9 -9 -9 -9 -9 -9 -9 -8 -8 -8 -8 -7 -7 -6 -6 -5 -5 -4 -3 -2 -3
-3 -3 -3 -4 -8 -6 -4 -4 -5 -7 -8 -8 -8 -8 -8 -8 -8 -9 -8 -8 -9 -9 -9 -8 -8 -8 -8 -9 -9 -9 -9 -9 -9 -9 -8 -8 -8 -8 -7 -7 -7 -7 -6 -5 -4 -3 -3 -3 -3
-3 -4 -5 -6 -6 -8 -8 -7 -7 -10 -9 -9 -10 -9 -9 -9 -9 -9 -9 -9 -9 -9 -9 -9 -8 -8 -9 -9 -9 -9 -8 -9 -9 -9 -9 -8 -8 -8 -7 -7 -7 -6 -5 -5 -4 -4 -4 -3 -3
-4 -6 -7 -8 -8 -8 -8 -9 -8 -9 -11 -10 -11 -10 -10 -10 -9 -9 -10 -9 -9 -9 -9 -8 -9 -9 -9 -9 -9 -8 -8 -8 -8 -8 -8 -8 -8 -7 -7 -7 -6 -5 -5 -5 -5 -4 -3 -3 -2

GFSSGP_700_temp_222.txt.gz
Temp
13 13 13 13 13 12 12 12 12 12 12 12 11 12 12 11 11 11 10 10 10 9 10 10 10 10 10 10 10 9 9 9 9 9 9 9 8 8 8 8 8 8 8 8 8 8 8 8 8
12 13 13 13 12 12 11 12 12 12 11 11 11 10 11 11 11 10 11 10 9 9 9 9 10 10 10 10 9 9 9 9 9 9 9 8 8 8 8 8 8 8 8 8 8 8 8 8 7
12 12 13 12 12 12 11 11 11 11 12 11 11 11 10 9 9 9 10 10 10 10 9 9 9 9 9 9 9 9 9 9 9 9 8 8 8 8 8 8 8 8 8 8 8 8 8 7 7
13 13 12 11 11 11 11 11 11 11 11 11 11 11 9 8 8 8 9 10 10 10 10 9 9 9 9 9 9 9 9 9 9 8 8 8 8 8 8 8 8 8 8 8 7 7 7 7 7
12 13 11 11 11 11 11 11 11 11 11 11 11 10 9 9 9 9 9 9 9 9 9 9 9 9 9 9 9 8 8 8 8 8 8 8 8 8 8 8 8 7 7 7 7 7 7 7 7
12 12 11 11 10 11 11 11 11 11 10 10 10 10 8 8 8 8 8 9 9 9 9 8 8 8 8 8 8 8 8 7 7 7 8 8 8 8 8 7 7 7 7 7 7 7 7 7 7
12 11 11 11 10 11 11 10 10 11 10 10 10 10 8 7 7 7 7 8 8 8 8 8 8 8 8 8 8 7 7 7 7 7 7 7 7 7 7 7 7 7 7 7 7 7 7 7 7
11 11 11 11 11 11 10 10 10 10 10 10 9 9 9 8 8 8 8 8 7 7 7 7 7 7 7 7 7 7 7 7 7 7 7 7 7 7 7 7 7 7 7 7 7 7 7 7 7
11 11 10 10 10 10 10 10 9 9 9 9 9 9 9 9 8 8 7 7 7 7 5 5 6 6 6 6 7 7 7 6 6 6 6 7 7 7 7 6 6 7 6 7 6 6 6 7 7
11 11 10 10 10 10 10 10 9 8 9 9 8 8 8 8 8 8 7 7 7 6 5 6 5 6 5 5 6 6 6 6 6 6 6 6 6 6 7 7 6 6 6 6 6 6 6 6 7
10 10 10 10 10 10 10 10 10 9 9 9 8 8 7 7 7 7 7 7 7 6 6 6 5 5 5 5 5 6 5 5 6 6 6 6 6 6 6 6 6 6 6 6 6 6 6 6 7
10 10 10 10 10 10 10 10 10 9 9 8 8 8 7 7 7 7 6 6 6 6 6 6 6 6 6 5 5 5 5 5 4 4 4 5 5 5 6 6 6 6 6 5 5 5 5 6 6
10 10 10 9 10 9 9 9 10 9 8 7 7 6 6 6 6 6 6 6 6 5 5 5 5 5 5 4 4 3 3 3 3 3 3 3 3 3 4 4 5 5 5 5 5 5 5 5 6
9 10 9 9 9 9 9 9 8 7 6 6 5 5 5 5 4 4 4 4 4 4 4 4 3 3 3 1 1 1 1 1 1 1 2 2 2 2 2 3 3 3 4 4 4 4 5 5 5
9 9 8 8 8 8 8 8 7 6 5 5 5 4 4 4 4 4 4 4 3 3 2 1 0 -0 0 -0 -0 -0 -0 0 0 1 1 1 1 1 1 1 2 2 2 3 3 3 4 5 5
9 9 9 8 9 8 7 6 6 5 5 4 4 4 4 3 3 3 3 2 1 1 1 0 0 -1 -1 -1 -0 -0 -0 -0 0 0 0 0 0 1 1 1 1 2 2 2 2 3 3 4 4
8 9 9 8 8 7 6 6 6 5 4 3 3 2 2 1 -0 -1 -2 -2 -3 -4 -4 -3 -2 -1 -1 -1 -1 -1 -1 -1 -1 -1 -1 -1 -1 -1 -1 1 1 1 1 1 1 2 2 3 3
7 7 8 7 6 6 5 5 5 5 4 3 2 1 -1 -1 -2 -3 -4 -5 -5 -5 -4 -4 -4 -3 -3 -2 -2 -2 -2 -2 -3 -3 -3 -2 -3 -3 -3 -2 -2 -1 0 1 1 1 1 2 3
6 7 7 7 6 4 4 4 5 3 2 1 0 -1 -2 -3 -3 -4 -4 -4 -4 -4 -4 -4 -3 -3 -3 -4 -4 -4 -4 -4 -5 -5 -5 -5 -5 -5 -5 -4 -4 -4 -3 -1 -0 0 1 1 1
7 7 7 6 5 3 2 2 1 0 0 -1 -1 -2 -3 -3 -4 -4 -4 -5 -5 -4 -4 -4 -4 -4 -5 -5 -5 -6 -5 -5 -6 -6 -7 -7 -7 -7 -7 -6 -5 -5 -4 -4 -2 -1 -0 1 0
7 6 6 4 3 3 1 0 -1 -2 -2 -3 -3 -4 -4 -4 -5 -5 -5 -5 -5 -5 -5 -5 -6 -6 -6 -6 -6 -6 -6 -7 -7 -7 -7 -7 -8 -8 -7 -7 -6 -6 -5 -5 -4 -3 -2 -1 0
5 4 5 4 2 2 1 0 -2 -3 -3 -3 -4 -5 -5 -6 -6 -6 -6 -6 -6 -6 -7 -7 -7 -7 -7 -7 -7 -7 -6 -6 -7 -9 -8 -8 -9 -9 -9 -8 -7 -7 -6 -5 -4 -4 -3 -3 -1
2 4 5 5 4 1 0 0 -3 -3 -3 -5 -6 -7 -7 -7 -7 -7 -7 -7 -7 -7 -7 -8 -8 -8 -8 -8 -8 -8 -8 -7 -8 -9 -9 -9 -9 -9 -9 -9 -8 -7 -7 -6 -5 -4 -4 -3 -2
2 4 5 4 3 -1 -1 -2 -4 -4 -7 -7 -7 -8 -8 -8 -8 -8 -8 -7 -8 -8 -8 -8 -8 -7 -8 -7 -7 -8 -8 -8 -9 -9 -9 -9 -9 -9 -8 -9 -8 -8 -7 -7 -6 -5 -4 -3 -3
1 1 1 0 -1 -1 1 -2 -5 -7 -8 -8 -8 -8 -8 -9 -9 -9 -8 -8 -8 -9 -9 -9 -9 -8 -7 -7 -7 -8 -8 -9 -9 -9 -9 -9 -9 -9 -8 -8 -8 -8 -7 -7 -6 -6 -4 -4 -3
-1 -1 -1 -3 -4 -3 -2 -4 -7 -7 -7 -7 -8 -9 -9 -9 -9 -9 -9 -9 -9 -9 -9 -9 -9 -8 -8 -8 -7 -8 -8 -9 -9 -9 -9 -9 -9 -9 -9 -9 -8 -7 -7 -7 -6 -6 -5 -4 -4
-1 -3 -4 -4 -4 -6 -3 -4 -5 -5 -4 -4 -8 -9 -10 -10 -10 -10 -9 -9 -9 -9 -9 -9 -9 -9 -8 -8 -8 -8 -8 -9 -9 -9 -9 -9 -9 -9 -9 -9 -8 -8 -7 -7 -7 -6 -5 -4 -4
-3 -4 -4 -5 -9 -8 -5 -5 -8 -8 -9 -9 -10 -10 -11 -11 -11 -10 -10 -9 -9 -9 -9 -9 -9 -9 -8 -8 -9 -9 -9 -9 -9 -9 -9 -9 -9 -9 -8 -8 -8 -8 -7 -7 -6 -6 -5 -5 -4
-4 -6 -7 -7 -7 -10 -11 -7 -8 -9 -9 -11 -11 -11 -11 -11 -11 -11 -11 -10 -10 -9 -9 -9 -8 -8 -8 -8 -9 -9 -9 -9 -9 -9 -9 -9 -9 -9 -8 -7 -7 -7 -6 -6 -6 -6 -5 -5 -4
-5 -7 -8 -8 -8 -8 -9 -9 -9 -10 -10 -11 -11 -11 -12 -12 -11 -11 -11 -10 -9 -9 -9 -8 -8 -8 -9 -9 -9 -9 -10 -10 -10 -10 -9 -9 -9 -8 -8 -7 -7 -6 -6 -6 -5 -5 -5 -4 -4